Voltar ao catálogo

COSMOS 1818 COOLANT

AtivoLEO
NORAD 36935·DEBRIS·🇷🇺 Russia

Lançado Feb 1, 1987 de Baikonur Cosmodrome

Loading…

Próximas Passagens (próximas 24 horas)

TLE

ObsoletoSource: Space-Track

Época: Sep 6, 2026, 09:52 UTC

1 36935U 87011P   26249.41122996  .00000448  00000-0  16948-3 0  9997
2 36935  65.0063 293.0424 0020447 280.8593  79.0195 14.41273743353394

Acompanhe COSMOS 1818 COOLANT em tempo real com AllMySat

Download on the App Store